Regional Weather Roundup
Issued by NWS

Home | Current Version | Previous Version | Graphics & Text | Print | Product List | Glossary On
Versions: 1 2 3 4 5 6 7 8 9 10 11 12 13 14 15 16 17 18 19 20 21 22 23 24 25 26 27 28 29 30 31 32 33 34 35 36 37 38 39 40 41 42 43 44 45 46 47 48 49 50
417
ASUS43 KMKX 192211
RWRWI

WISCONSIN REGIONAL WEATHER ROUNDUP
NATIONAL WEATHER SERVICE MILWAUKEE/SULLIVAN WI
500 PM CDT TUE SEP 19 2017

NOTE: "FAIR" INDICATES FEW OR NO CLOUDS BELOW 12,000 FEET WITH NO
SIGNIFICANT WEATHER AND/OR OBSTRUCTIONS TO VISIBILITY.

WIZ001-002-006>008-014>016-023>028-192300-
NORTHWEST WISCONSIN

CITY           SKY/WX    TMP DP  RH WIND       PRES   REMARKS
SUPERIOR ARPT  PTSUNNY   62  58  86 NE9G18    29.83F
ASHLAND        MOSUNNY   68  60  75 N8        29.85F
HAYWARD        MOSUNNY   74  58  57 S13       29.84F
SIREN          PTSUNNY   76  60  57 SE15      29.79F
CUMBERLAND     PTSUNNY   72  59  64 SE14      29.82F
RICE LAKE      MOSUNNY   77  61  57 SE10      29.83F
CHETEK         MOSUNNY   75  63  66 SE12G18   29.83F
LADYSMITH      MOSUNNY   75  57  54 S9G17     29.88F
EAU CLAIRE     SUNNY     76  61  59 SE16      29.82F
MENOMONIE      PTSUNNY   76  62  62 SE13      29.82F
NEW RICHMOND   CLOUDY    75  60  58 SE10G17   29.79F
OSCEOLA        CLOUDY    76  61  60 SE14G20   29.80F
$$

WIZ003>005-009-010-017-018-192300-
NORTH CENTRAL WISCONSIN

CITY           SKY/WX    TMP DP  RH WIND       PRES   REMARKS
MANITOWISH WTR PTSUNNY   73  58  59 SE10      29.91F
ARBOR VITAE    SUNNY     75  58  55 SE9       29.92S
WOODRUFF       SUNNY     75  58  55 SE9       29.92S
RHINELANDER    SUNNY     72  58  61 SE10      29.94F
EAGLE RIVER    SUNNY     72  54  53 S10       29.94S
LAND O LAKES   MOSUNNY   72  56  58 SE12G18   29.95F
PHILLIPS       PTSUNNY   74  57  54 SE12      29.89S
TOMAHAWK         N/A     74  56  54 SE5       29.92F
MEDFORD        SUNNY     73  53  50 SE9       29.90F
MERRILL          N/A     75  59  57 SE15      29.92F
$$

WIZ029-030-035-036-043>047-192300-
CENTRAL WISCONSIN

CITY           SKY/WX    TMP DP  RH WIND       PRES   REMARKS
WAUSAU         SUNNY     74  57  55 SE12G18   29.90F
MOSINEE        MOSUNNY   73  57  56 SE12      29.92F
MARSHFIELD     SUNNY     76  51  41 SE10      29.89F
STEVENS POINT  SUNNY     74  56  53 SE12      29.91F
WAUPACA        SUNNY     78  60  53 E9        29.92F
WAUTOMA        SUNNY     79  57  46 E9        29.90F HX  80
WISC RAPIDS    SUNNY     79  54  41 SE14      29.90F
CAMP DOUGLAS   MOSUNNY   79  59  50 S10       29.87F HX  80
$$

WIZ011>013-019>022-031-037>040-048>050-192300-
NORTHEAST WISCONSIN

CITY           SKY/WX    TMP DP  RH WIND       PRES   REMARKS
ANTIGO         SUNNY     71  57  63 SE15      29.95F
SHAWANO        MOSUNNY   75  60  60 E9        29.94F
OCONTO         SUNNY     72  55  56 E6        29.95F
STURGEON BAY   SUNNY     70  52  52 E7        29.97F
GREEN BAY      SUNNY     74  58  57 E7        29.94F
MANITOWOC      SUNNY     67  60  78 E8        29.96F
APPLETON       MOSUNNY   73  54  49 SE12      29.93F
CLINTONVILLE   PTSUNNY   75  55  50 SE8       29.93S
OSHKOSH        SUNNY     74  61  63 E12       29.92F
$$

WIZ032>034-041-042-053>061-192300-
SOUTHWEST WISCONSIN

CITY           SKY/WX    TMP DP  RH WIND       PRES   REMARKS
LA CROSSE      MOSUNNY   82  63  52 SE9       29.82F HX  83
SPARTA         SUNNY     79  61  53 SE13      29.86F HX  80
VIROQUA        MOSUNNY   78  63  60 SE12G17   29.87F
BOSCOBEL       MOSUNNY   83  62  49 SE7       29.85F HX  84
PRAIRIE DU CHI SUNNY     80  59  48 SE9       29.83F HX  81
PLATTEVILLE    SUNNY     80  63  55 SE10      29.88F HX  81
$$

WIZ056-057-062-063-064-067-068-192300-
SOUTH CENTRAL WISCONSIN

CITY           SKY/WX    TMP DP  RH WIND       PRES   REMARKS
REEDSBURG      SUNNY     79  59  49 SE7       29.89S HX  80
BARABOO/DELLS  SUNNY     80  54  40 SE7       29.89F HX  80
LONE ROCK      MOSUNNY   80  63  55 S8        29.86F HX  81
MINERAL POINT  SUNNY     81  63  54 SE10      29.89F HX  82
MADISON        MOSUNNY   80  62  54 VRB6      29.89F HX  81
MIDDLETON      MOSUNNY   81  61  50 SE6       29.90F HX  81
WATERTOWN      MOSUNNY   76  65  67 E9        29.91S
MONROE         SUNNY     79  61  53 SE3       29.90F HX  80
JANESVILLE     MOSUNNY   79  61  53 SE8       29.90S HX  80
$$

WIZ051-052-058>065-066-070>072-192300-
SOUTHEAST WISCONSIN

CITY           SKY/WX    TMP DP  RH WIND       PRES   REMARKS
MILWAUKEE      CLOUDY    69  64  84 E10       29.94F
WAUKESHA       MOSUNNY   70  61  73 E9        29.94F
MILWAUKEE/TIMM CLOUDY    68  59  73 E7        29.95F
RACINE         CLOUDY    69  66  90 E8        29.96S FOG
BURLINGTON     SUNNY     74  65  73 E9        29.92S
KENOSHA        PTSUNNY   72  64  76 E8        29.94F
FOND DU LAC    SUNNY     76  56  49 SE12      29.92F
SHEBOYGAN      SUNNY     70  61  73 VRB5      29.95F
WEST BEND        N/A     68  63  83 E8        29.95S
JUNEAU         SUNNY     75  62  62 E8        29.93R
$$

LSZ147-162-192300-
LAKE SUPERIOR

STATION/POSITION TIME  TEMP    WIND        PRES    WAVE
                       AIR SEA DIR/SP/G            HT/PER
                 (UTC) (F)     (DEG/KT/KT) (MB)    (FT/S)
W MID LAKE BUOY  2150   58 55   50/ 14/ 16 1012.2F   1/ 4
DEVILS ISLAND    2200   59      70/ 10/ 12 1011.6F
SAXON HARBOR     2130   65     300/  4/  5 1011.2S
$$

LMZ867-665-643>646-192300-
LAKE MICHIGAN

STATION/POSITION TIME  TEMP    WIND        PRES    WAVE
                       AIR SEA DIR/SP/G            HT/PER
                 (UTC) (F)     (DEG/KT/KT) (MB)    (FT/S)
S GREEN BAY BUOY 2200   70 67  100/  6/  8 1014.2
N MID LAKE BUOY  2150   65 65   60/  8/ 10 1015.6F   1/ 3
NORTHPORT PIER   2140   65      80/  7/  9 1014.9F
KEWAUNEE LAKESHO 2148   66      40/  2/  4 1014.0F
SHEBOYGAN LAKESH 2200   65      90/  6/  6 1013.9F
PORT WASHINGTON  2130   67     100/  5/  9 1015.2S
ATWATER BUOY     2109   67 68   60/ 10/ 12 1014.4F
MILWAUKEE LAKESH 2150   66      90/  8/  9   N/A
S MID LAKE BUOY  2150   68 69   20/  6/  6 1013.7F   1/ 4
KENOSHA   LAKESH 2200   68      70/  7/  9 1013.5
$$

TC  - TEMPERATURE IN CELSIUS
VSB - VISIBILITY IN STATUTE MILES
WCI - WIND CHILL INDEX
HX  - HEAT INDEX





USA.gov is the U.S. government's official web portal to all federal, state and local government web resources and services.